Location: Derby
(52.9213°N, 1.4761°W)
Time: 01:05:12
(UTC+01:00)

A-11 Canister half - Pass Details

Date: 23 May 2025
Orbit: 1524 x 1684 km, 47.3° (Epoch: 12 June)

Event Time Altitude Azimuth Distance (km) Brightness Sun altitude
Rises 03:21:28 0° 282° (WNW) 4,839 11.4 -10.6°
Reaches altitude 10° 03:28:48 10° 246° (WSW) 3,892 10.6 -9.9°
Maximum altitude 03:30:09 10° 238° (WSW) 3,870 10.5 -9.8°
Drops below altitude 10° 03:31:31 10° 230° (SW) 3,903 10.5 -9.7°
Enters shadow 03:31:38 10° 229° (SW) 3,908 10.5 -9.7°
